Regional Weather Roundup
Issued by NWS

Home | Current Version | Previous Version | Graphics & Text | Print | Product List | Glossary On
Versions: 1 2 3 4 5 6 7 8 9 10 11 12 13 14 15 16 17 18 19 20 21 22 23 24 25 26 27 28 29 30 31 32 33 34 35 36 37 38 39 40 41 42 43 44 45 46 47 48 49
000
ASUS45 KCYS 192110
RWRWY

WYOMING REGIONAL WEATHER ROUNDUP
NATIONAL WEATHER SERVICE CHEYENNE WY
200 PM MST FRI DEC 19 2014

NOTE:  "FAIR" INDICATES FEW OR NO CLOUDS BELOW 12,000 FEET
WITH NO SIGNIFICANT WEATHER AND/OR OBSTRUCTIONS TO VISIBILITY.

WYZ001-192200-
YELLOWSTONE NATIONAL PARK

CITY           SKY/WX    TMP DP  RH WIND       PRES   REMARKS
LK YELLOWSTONE   N/A     26  21  81 VRB3      30.03F
W YELLOWSTONE  NOT AVBL

$$
WYZ002>013-054>058-071-098>099-192200-
NORTHERN WYOMING

CITY           SKY/WX    TMP DP  RH WIND       PRES   REMARKS
JACKSON        CLOUDY    32  27  80 SW7       30.06F WCI  26
CODY           FAIR      43  21  42 W18G29    29.88F
GREYBULL       FAIR      26  16  65 CALM      29.97F
WORLAND        FAIR      18  12  77 SW6       29.96F WCI  10
SHERIDAN       FAIR      44  23  43 SE5       29.88F
BUFFALO        FAIR      41  17  38 SE7       29.90F
GILLETTE       PTSUNNY   38  21  50 SW8       29.91S WCI  32
HULETT           N/A    N/A N/A N/A MISG        N/A
NEWCASTLE      FAIR      37  18  44 SE3       29.95F

$$
WYZ014>020-022>026-101>103-192200-
CENTRAL WYOMING

CITY           SKY/WX    TMP DP  RH WIND       PRES   REMARKS
BIG PINEY      CLOUDY    33  17  51 CALM      30.08S
PINEDALE       CLOUDY    30  21  69 NW6       30.09R WCI  24
DUBOIS         NOT AVBL
LANDER         FAIR      14   8  77 CALM      29.97F
RIVERTON       FAIR      12   9  87 CALM      29.99S
CASPER         FAIR      32  22  66 SW21      29.97F WCI  20
DOUGLAS        FAIR      41  21  44 W17       29.96F

$$
WYZ021-027>030-104>119-192200-
SOUTHERN WYOMING

CITY           SKY/WX    TMP DP  RH WIND       PRES   REMARKS
EVANSTON       CLOUDY    34  21  59 SW13      30.10F WCI  25
KEMMERER       CLOUDY    32  21  64 W13       30.09F WCI  22
FORT BRIDGER   CLOUDY    38  22  52 W20G28    30.12S WCI  28
ROCK SPRINGS   CLOUDY    33  21  61 W21G26    30.08S WCI  21
DIXON          MOCLDY    27  22  82 SW8       30.18S WCI  18
RAWLINS        PTSUNNY   30  20  66 CALM      30.04F
SARATOGA       FAIR      32  21  64 SW13      30.08F WCI  22
LARAMIE        FAIR      31  16  54 W22G30    29.99S WCI  18
CHEYENNE       FAIR      39  14  36 W28G37    29.99S WCI  28
TORRINGTON     FAIR     N/A N/A N/A W16       29.96F
PINE BLUFFS    FAIR      43  18  36 NW22      29.99S

$$



USA.gov is the U.S. government's official web portal to all federal, state and local government web resources and services.